Regional Weather Roundup
Issued by NWS Jackson, KY

Home | Current Version | Previous Version | Graphics & Text | Print | Product List | Glossary On
Versions: 1 2 3 4 5 6 7 8 9 10 11 12 13 14 15 16 17 18 19 20 21 22 23 24 25 26 27 28 29 30 31 32 33 34 35 36 37 38 39 40 41 42 43 44 45 46 47 48 49 50
000
ASUS43 KJKL 291910
RWRJKL

EAST KENTUCKY HOURLY WEATHER ROUNDUP
NATIONAL WEATHER SERVICE JACKSON KY
300 PM EDT FRI MAY 29 2015

NOTE: "FAIR" INDICATES FEW OR NO CLOUDS BELOW 12,000 FEET WITH
NO SIGNIFICANT WEATHER AND/OR OBSTRUCTIONS TO VISIBILITY.

* THESE REPORTS ARE NOT UNDER NWS QUALITY CONTROL AND MAY NOT
  REPORT WEATHER SUCH AS PRECIPITATION AND FOG.

KYZ079-080-083-085-087-088-110-112-115-119-120-292000
...EASTERN KENTUCKY...

CITY           SKY/WX    TMP DP  RH WIND       PRES   REMARKS
JACKSON        MOSUNNY   78  67  68 CALM      30.19F
LONDON         MOSUNNY   81  60  48 W7        30.18F
SOMERSET*      LGT RAIN  72  64  78 W13G18    30.18F
MONTICELLO*    MOSUNNY   73  70  91 SE5       30.21F
MIDDLESBORO*   RAIN      76  69  79 NE6       30.19F
HARLAN APT*    PTCLDY    82  59  44 CALM      30.19F
HAZARD APT*    CLEAR     86  63  45 S3        30.17F
BLACK MTN*       N/A    N/A N/A N/A S1          N/A
PIKEVILLE APT* MOSUNNY   81  64  57 W5        30.20F
BIG SANDY*     PTCLDY    84  65  51 SE5       30.18F
MOREHEAD APT*  MOCLDY    73  68  83 CALM      30.20F
$$

KYZ035-036-041-042-044-050-067-078-099-292000
...CENTRAL KENTUCKY...

CITY           SKY/WX    TMP DP  RH WIND       PRES   REMARKS
MT STERLING*   PTSUNNY   81  66  61 W8        30.17F
FLEMING/MASON* PTSUNNY   75  72  88 SW6       30.17F
DANVILLE*      DRIZZLE   73  68  83 S8        30.18F
RICHMOND*      CLOUDY    70  64  83 CALM      30.18F
LEXINGTON      PTSUNNY   72  68  87 CALM      30.16F
FRANKFORT      MOSUNNY   81  67  62 S13G20    30.13F
$$

KYZ091>093-OHZ055-061-077-WVZ005-015-034-035-042-292000
...SOUTHERN OHIO/WEST VIRGINIA...

CITY           SKY/WX    TMP DP  RH WIND       PRES   REMARKS
COVINGTON      PTSUNNY   82  65  56 S13       30.13F
COLUMBUS       CLOUDY    83  64  52 S14G21    30.14F
DAYTON         PTSUNNY   83  67  58 SW14      30.12F
WILMINGTON     MOSUNNY   84  64  50 SW12      30.13F
HUNTINGTON     PTSUNNY   83  64  52 VRB7      30.15F
CHARLESTON     PTSUNNY   85  65  51 VRB5      30.17F
PINEVILLE*     PTSUNNY   75  73  91 MISG      30.27F
BECKLEY        CLOUDY    72  59  63 NE6       30.27S
BLUEFIELD      PTSUNNY   77  60  55 W10       30.29F
$$

VAZ002-007-008-TNZ017-027-036-066-071-292000
...SOUTHWEST VIRGINIA/EAST TENNESSEE...

CITY           SKY/WX    TMP DP  RH WIND       PRES   REMARKS
WISE*          MOSUNNY   79  55  44 S9        30.27F
JONESVILLE*    PTCLDY    82  63  51 S3        30.20F
ABINGDON*      CLOUDY    80  59  48 S5        30.25F
BRISTOL        PTSUNNY   83  62  49 E8        30.20F
KNOXVILLE      PTSUNNY   84  62  47 VRB6      30.15F
OAK RIDGE      MOSUNNY   84  64  50 MISG      30.17F
CROSSVILLE     MOSUNNY   78  62  57 SE10G18   30.22F
NASHVILLE      PTSUNNY   82  69  64 S9        30.13F
$$

...KEY TO REMARKS...
VSB - VISIBILITY IN MILES
WCI - WIND CHILL INDEX
HX  - HEAT INDEX

$$


USA.gov is the U.S. government's official web portal to all federal, state and local government web resources and services.